BREEZE-M R/B, 43433

Orbit data source: Space-Track

BREEZE-M R/B, 43433 is space debris in GEO originally from a launch on Wed, 18 Apr 2018 UTC launched from the Tyuratam Missile And Space Complex (TTMTR). Debris objects in space refer to the collection of defunct objects orbiting the Earth. Examples of debris include non-operational satellites, rocket bodies, and fragments generated from explosions, collisions, or faulty payload assembly.

Loading next visibility...
Identifier
43433, 2018-037B
Orbit
GEO
Country
Flag of CISCIS
Related business
Manufacturer
Khrunichev
Mission
Spacecraft
Bus & Motor
BRIZ, Unknown motor
Mass
~1,600 kg wet, 1,600 kg dry
Launch date (UTC)
2018-04-18 (7 years ago)
Launch vehicle
Unknown
Launch site
Tyuratam Missile And Space Complex (TTMTR)
Object type
Payload
Rocket body
Debris
Shape & HBR
Cyl, 2.0 m
Radar Cross Section
14.451 m²

Expand to show TLE details & history
Last TLE update: 2 days ago

TLE from 2 days ago
0 BREEZE-M R/B
1 43433U 18037B   25260.31230680 -.00000203  00000-0  00000-0 0  9990
2 43433   7.3664  74.1608 0684252  21.8426 341.1253  0.90514415 24735
Epoch: 2025-09-17T07:29Z
TLE epoch observation values (Epoch: 2025-09-17T07:29:43.307Z)
Latitude
0.00001°
Longitude
-34.57384°
Altitude
35,881.919 km
Speed
3.168 km/s
True Right ascension
04h 57m 23s
True Declination
0° 00' 00"
Sunlit
Object was in daylight at epoch
Visualization orbit readout
Latitude
Unknown
Longitude
Unknown
Altitude
Unknown
Speed
Unknown
Apparent Right ascension
Unknown
Apparent Declination
Unknown
Sunlit
N/A
Visualization observer readout
Local Sidereal Time
18:03:20
Azimuth
Unknown
Elevation
Unknown
Doppler factor
Unknown
Orbital elements
Apogee altitude
41,854.79 km
Perigee altitude
35,676.823 km
Semi-major axis
45,143.944 km
Eccentricity
0.06843
Inclination
7.3664°
RAAN
74.1608°
Arg. of periapsis
21.8426°
True anomaly
338.36734°
Mean anomaly
341.1253°
Eccentric anomaly
339.76962°
Mean motion
0.22628 °/min
Orbital period
1,590.96 mins
BSTAR
0
Loading maneuver chart data...
Computing Atmospheric mass density...
Loading historical data...
Loading historical data...
Loading historical data...
Loading historical data...
Loading historical data...
Loading historical data...
Loading historical data...
Other satellites on launch #37 in the year 2018 (2018-04-18 UTC)

Documentation

Showing up to 5 results
|